Regional Weather Roundup
Issued by NWS Albany, NY

Home | Current Version | Previous Version | Text Only | Print | Product List | Glossary On
Versions: 1 2 3 4 5 6 7 8 9 10 11 12 13 14 15 16 17 18 19 20 21 22 23 24 25 26 27 28 29 30 31 32 33 34 35 36 37 38 39 40 41 42 43 44 45 46 47 48 49 50
000
ASUS41 KALY 231910
RWRALY

NEW YORK STATE HOURLY WEATHER ROUNDUP
NATIONAL WEATHER SERVICE ALBANY NY
300 PM EDT SAT AUG 23 2014

NOTE: "FAIR" INDICATES FEW OR NO CLOUDS BELOW 12,000 FEET WITH NO
SIGNIFICANT WEATHER AND/OR NO OBSTRUCTIONS TO VISIBILITY.

NYZ032-033-038>043-046>054-057>066-NYZ062>081-232000-
EAST


CITY           SKY/WX    TMP DP  RH WIND       PRES   REMARKS
ALBANY         PTSUNNY   74  59  59 N7        30.12S
GLENS FALLS    CLOUDY    73  58  59 NE6       30.12S
POUGHKEEPSIE   MOSUNNY   75  58  55 SE5       30.09F
NEWBURGH       PTSUNNY   73  61  64 E12       30.12S
MONTGOMERY     PTSUNNY   74  58  57 NE9       30.10F
WHITE PLAINS   PTSUNNY   73  57  57 SE9       30.09F
ISLIP          PTSUNNY   72  59  63 E7        30.07S
NEW YORK CITY  PTSUNNY   73  58  59 NE13      30.08F
CENTRAL PARK   PTSUNNY   76  55  48 NE7       30.11F
$$

NYZ005>009-017-018-044>046-055-056-232000-
CENTRAL


CITY           SKY/WX    TMP DP  RH WIND       PRES   REMARKS
FULTON         CLOUDY    73  63  70 VRB6      30.11R
SYRACUSE       CLOUDY    71  63  75 E6        30.10S
ROME           CLOUDY    71  58  63 E9        30.14S
ELMIRA         CLOUDY    68  63  84 SE6       30.10S
BINGHAMTON     LGT RAIN  62  61  96 SE7       30.14R FOG
MONTICELLO     CLOUDY    64  57  77 CALM      30.15S
$$

NYZ026>034-041>043-232000-
NORTH


CITY           SKY/WX    TMP DP  RH WIND       PRES   REMARKS
WATERTOWN      CLOUDY    71  60  68 E6        30.12S
FORT DRUM      NOT AVBL
MASSENA        SUNNY     78  61  55 NE17      30.12F
SARANAC LAKE   PTSUNNY   72  50  45 SE7       30.14S
PLATTSBURGH    MOSUNNY   75  56  51 CALM      30.12F
$$

NYZ001>004-010>016-019>021-232000-
WEST


CITY           SKY/WX    TMP DP  RH WIND       PRES   REMARKS
NIAGARA FALLS  PTSUNNY   76  66  71 NE10      30.07S
BUFFALO        PTSUNNY   78  65  63 NE12      30.06S
DUNKIRK        SUNNY     75  67  76 N12G24    30.05S
JAMESTOWN      CLOUDY    75  66  73 NW9       30.06F
WELLSVILLE     CLOUDY    69  61  75 SE8       30.12S
ROCHESTER      PTSUNNY   76  65  68 E9        30.07S
PENN YAN       CLOUDY    71  63  75 SE8       30.10R
$$

             KEY
       WCI = WIND CHILL INDEX
       VSB = VISIBILITY
       HX  = HEAT INDEX
$$



USA.gov is the U.S. government's official web portal to all federal, state and local government web resources and services.